Cherryvale, KS

8:26 PM CDT on September 26, 2016 (GMT -0500)
Tri-City

Weather History for KPPF - March, 2013

Change the Weather History Date:

Friday, March 15, 2013

  Actual Average Record
Temperature  
Mean Temperature 60 °F -  
Max Temperature 81 °F 58 °F 81 °F (2012)
Min Temperature 39 °F 34 °F 15 °F (1949)
Degree Days  
Heating Degree Days 6    
Growing Degree Days 10 (Base 50)    
Moisture  
Dew Point 42 °F    
Average Humidity 52    
Maximum Humidity 86    
Minimum Humidity 27    
Precipitation  
Precipitation 0.00 in - - ()
Sea Level Pressure  
Sea Level Pressure 29.88 in    
Wind  
Wind Speed 5 mph (SSW)    
Max Wind Speed 12 mph    
Max Gust Speed 20 mph    
Visibility 10 miles    
Events      
Averages and records for this station are not official NWS values.
T = Trace of Precipitation, MM = Missing Value Source: NWS Daily Summary

Daily Weather History Graph

Daily Weather History Graph

Search for Another Location

Airport or City:

Trip Planner

Search our weather history database for the weather conditions in past years. The results will help you decide how hot, cold, wet, or windy it might be!

Date:

Astronomy

Mar. 15, 2013 Rise Set
Actual Time 7:32 AM CDT 7:29 PM CDT
Civil Twilight 7:06 AM CDT 7:55 PM CDT
Nautical Twilight 6:36 AM CDT 8:25 PM CDT
Astronomical Twilight 6:05 AM CDT 8:56 PM CDT
Moon 9:29 AM CDT (3/15) 11:38 PM CDT (3/15)
Length of Visible Light 12h 48m
Length of Day
11h 56m
Waxing Crescent, 15% of the Moon is Illuminated
Mar 15
Waxing Crescent
Mar 19
First Quarter
Mar 27
Full
Apr 2
Last Quarter
Apr 10
New

Hourly Weather History & Observations

Time (CDT) Temp. Windchill Dew Point Humidity Pressure Visibility Wind Dir Wind Speed Gust Speed Precip Events Conditions
12:52 AM 43.0 °F 41.3 °F 37.0 °F 80% 30.09 in 10.0 mi NE 3.5 mph - N/A   Clear
2:52 AM 39.9 °F - 35.1 °F 83% 30.06 in 10.0 mi Calm Calm - N/A   Clear
3:52 AM 41.0 °F - 36.0 °F 82% 30.04 in 10.0 mi Calm Calm - N/A   Clear
4:52 AM 39.0 °F - 35.1 °F 86% 30.01 in 10.0 mi Calm Calm - N/A   Clear
5:52 AM 48.0 °F - 39.0 °F 71% 29.99 in 10.0 mi South 4.6 mph - N/A   Clear
6:52 AM 48.9 °F - 39.9 °F 71% 29.99 in 10.0 mi South 3.5 mph - N/A   Clear
7:52 AM 48.9 °F - 42.1 °F 77% 29.99 in 10.0 mi South 5.8 mph - N/A   Clear
8:52 AM 53.1 °F - 43.0 °F 69% 29.98 in 10.0 mi South 8.1 mph - N/A   Clear
9:52 AM 57.9 °F - 45.0 °F 62% 29.96 in 10.0 mi SSW 6.9 mph - N/A   Clear
10:52 AM 64.0 °F - 45.0 °F 50% 29.94 in 10.0 mi SSW 10.4 mph - N/A   Clear
11:52 AM 71.1 °F - 45.0 °F 39% 29.91 in 10.0 mi SSW 10.4 mph - N/A   Clear
12:52 PM 75.0 °F - 45.0 °F 34% 29.89 in 10.0 mi SSW 11.5 mph 19.6 mph N/A   Clear
1:52 PM 77.0 °F - 45.0 °F 32% 29.85 in 10.0 mi SW 10.4 mph 16.1 mph N/A   Clear
2:52 PM 79.0 °F - 43.0 °F 28% 29.81 in 10.0 mi South 11.5 mph - N/A   Clear
3:52 PM 80.1 °F - 43.0 °F 27% 29.79 in 10.0 mi SSW 9.2 mph - N/A   Clear
4:52 PM 79.0 °F - 42.1 °F 27% 29.77 in 10.0 mi SSW 11.5 mph - N/A   Clear
5:52 PM 77.0 °F - 43.0 °F 30% 29.74 in 10.0 mi SSW 5.8 mph - N/A   Clear
6:52 PM 73.9 °F - 43.0 °F 33% 29.73 in 10.0 mi South 4.6 mph - N/A   Clear
7:52 PM 68.0 °F - 42.1 °F 39% 29.74 in 10.0 mi SSW 3.5 mph - N/A   Clear
8:52 PM 64.9 °F - 42.1 °F 43% 29.72 in 10.0 mi South 3.5 mph - N/A   Clear
9:52 PM 64.9 °F - 43.0 °F 45% 29.72 in 10.0 mi South 5.8 mph - N/A   Clear
10:52 PM 64.0 °F - 44.1 °F 48% 29.72 in 10.0 mi SSW 8.1 mph - N/A   Clear
11:52 PM 66.0 °F - 46.0 °F 48% 29.71 in 10.0 mi SSW 9.2 mph - N/A   Clear